Weather History for KEUL - December, 2012

Change the Weather History Date:

Thursday, December 6, 2012

  Actual Average (KBOI) Record (KBOI)
Temperature  
Mean Temperature 35 °F 32 °F  
Max Temperature 37 °F 39 °F 63 °F (1987)
Min Temperature 33 °F 25 °F 0 °F (1992)
Degree Days  
Heating Degree Days 30 33  
Month to date heating degree days 192  
Since 1 July heating degree days 1446  
Cooling Degree Days 0 0  
Month to date cooling degree days 0  
Year to date cooling degree days 942  
Moisture  
Dew Point 28 °F    
Average Humidity 73    
Maximum Humidity 75    
Minimum Humidity 70    
Precipitation  
Precipitation 0.00 in 0.05 in 0.62 in (1897)
Month to date precipitation 0.30  
Year to date precipitation 10.48  
Snow  
Snow 0.00 in 0.20 in 4.20 in (1972)
Month to date snowfall 1.1  
Since 1 July snowfall 3.8  
Snow Depth -    
Sea Level Pressure  
Sea Level Pressure 30.11 in    
Wind  
Wind Speed 4 mph (WNW)    
Max Wind Speed 7 mph    
Max Gust Speed -    
Visibility 10 miles    
Events      
T = Trace of Precipitation, MM = Missing Value Source: NWS Daily Summary

Daily Weather History Graph

Daily Weather History Graph

Search for Another Location

Airport or City:

Trip Planner

Search our weather history database for the weather conditions in past years. The results will help you decide how hot, cold, wet, or windy it might be!

Date:

Astronomy

Dec. 06, 2012 Rise Set
Actual Time 8:05 AM MST 5:09 PM MST
Civil Twilight 7:33 AM MST 5:42 PM MST
Nautical Twilight 6:57 AM MST 6:18 PM MST
Astronomical Twilight 6:22 AM MST 6:52 PM MST
Moon 12:14 AM MST (12/6) 12:49 PM MST (12/6)
Length of Visible Light 10h 08m
Length of Day
9h 03m
Waning Gibbous, 48% of the Moon is Illuminated
Dec 6
Waning Gibbous
Dec 13
New
Dec 19
First Quarter
Dec 28
Full
Jan 4
Last Quarter

Hourly Weather History & Observations

Time (MST) Temp. Windchill Dew Point Humidity Pressure Visibility Wind Dir Wind Speed Gust Speed Precip Events Conditions
12:15 AM 35.6 °F 31.7 °F 26.6 °F 70% 30.12 in 10.0 mi NW 4.6 mph - N/A   Clear
12:35 AM 35.6 °F 29.9 °F 26.6 °F 70% 30.12 in 10.0 mi WNW 6.9 mph - N/A   Clear
12:55 AM 33.8 °F 27.7 °F 26.6 °F 75% 30.12 in 10.0 mi WNW 6.9 mph - N/A   Scattered Clouds
1:15 AM 35.6 °F 29.9 °F 28.4 °F 75% 30.12 in 10.0 mi NW 6.9 mph - N/A   Overcast
1:55 AM 37.4 °F - 28.4 °F 70% 30.12 in 10.0 mi Calm Calm - N/A   Overcast
2:15 AM 35.6 °F - 28.4 °F 75% 30.12 in 10.0 mi Calm Calm - N/A   Overcast
2:35 AM 35.6 °F 31.7 °F 28.4 °F 75% 30.12 in 10.0 mi WNW 4.6 mph - N/A   Overcast
2:55 AM 35.6 °F 32.8 °F 28.4 °F 75% 30.13 in 10.0 mi WNW 3.5 mph - N/A   Overcast
3:15 AM 37.4 °F 33.8 °F 28.4 °F 70% 30.13 in 10.0 mi West 4.6 mph - N/A   Overcast
3:35 AM 37.4 °F 34.9 °F 28.4 °F 70% 30.12 in 10.0 mi WSW 3.5 mph - N/A   Overcast
3:55 AM 37.4 °F 33.8 °F 28.4 °F 70% 30.12 in 10.0 mi West 4.6 mph - N/A   Overcast
4:15 AM 35.6 °F 32.8 °F 26.6 °F 70% 30.11 in 10.0 mi WSW 3.5 mph - N/A   Overcast
4:35 AM 35.6 °F 31.7 °F 28.4 °F 75% 30.11 in 10.0 mi WNW 4.6 mph - N/A   Overcast
4:55 AM 35.6 °F 30.7 °F 28.4 °F 75% 30.11 in 10.0 mi NW 5.8 mph - N/A   Overcast
5:15 AM 35.6 °F 31.7 °F 28.4 °F 75% 30.11 in 10.0 mi NW 4.6 mph - N/A   Overcast
5:35 AM 35.6 °F 32.8 °F 28.4 °F 75% 30.10 in 10.0 mi WNW 3.5 mph - N/A   Overcast
5:55 AM 35.6 °F 32.8 °F 26.6 °F 70% 30.10 in 10.0 mi WSW 3.5 mph - N/A   Mostly Cloudy
6:15 AM 35.6 °F 32.8 °F 26.6 °F 70% 30.10 in 10.0 mi West 3.5 mph - N/A   Partly Cloudy
6:35 AM 35.6 °F - 26.6 °F 70% 30.10 in 10.0 mi Calm Calm - N/A   Clear
6:55 AM 33.8 °F - 26.6 °F 75% 30.10 in 10.0 mi Calm Calm - N/A   Clear
7:15 AM 35.6 °F 31.7 °F 26.6 °F 70% 30.11 in 10.0 mi NNW 4.6 mph - N/A   Clear
7:55 AM 33.8 °F 28.6 °F 26.6 °F 75% 30.10 in 10.0 mi NW 5.8 mph - N/A   Scattered Clouds
8:15 AM 33.8 °F - 26.6 °F 75% 30.10 in 10.0 mi Calm Calm - N/A   Mostly Cloudy
8:35 AM 33.8 °F 30.8 °F 26.6 °F 75% 30.10 in 10.0 mi WNW 3.5 mph - N/A   Partly Cloudy
8:55 AM 35.6 °F 30.7 °F 26.6 °F 70% 30.10 in 10.0 mi NNW 5.8 mph - N/A   Clear
9:15 AM 33.8 °F - 26.6 °F 75% 30.10 in 10.0 mi Calm Calm - N/A   Partly Cloudy
9:35 AM 33.8 °F 30.8 °F 26.6 °F 75% 30.10 in 10.0 mi SE 3.5 mph - N/A   Partly Cloudy
9:55 AM 35.6 °F - 28.4 °F 75% 30.11 in 10.0 mi Calm Calm - N/A   Clear
10:15 AM 35.6 °F - 28.4 °F 75% 30.12 in 10.0 mi Calm Calm - N/A   Mostly Cloudy
10:35 AM 35.6 °F - 28.4 °F 75% 30.12 in 10.0 mi Calm Calm - N/A   Overcast
10:55 AM 37.4 °F 34.9 °F 30.2 °F 75% 30.12 in 10.0 mi NNW 3.5 mph - N/A   Overcast